Regional Weather Roundup
Issued by NWS Bismarck, ND

Home | Current Version | Previous Version | Text Only | Print | Product List | Glossary On
Versions: 1 2 3 4 5 6 7 8 9 10 11 12 13 14 15 16 17 18 19 20 21 22 23 24 25 26 27 28 29 30 31 32 33 34 35 36 37 38 39 40 41 42 43 44 45 46 47 48 49 50
000
ASUS43 KBIS 172310
RWRBIS

NWR BROADCAST TEXT
NATIONAL WEATHER SERVICE BISMARCK ND
600 PM CDT WED SEP 17 2014

NOTE: "FAIR" INDICATES FEW OR NO CLOUDS BELOW 12,000 FEET WITH NO
SIGNIFICANT WEATHER AND/OR OBSTRUCTIONS TO VISIBILITY.


CITY           SKY/WX    TMP DP  RH WIND       PRES   REMARKS
WILLISTON      SUNNY     75  41  29 S12       29.92F
MINOT          SUNNY     67  49  52 E12       29.97F
MINOT AFB      SUNNY     66  50  57 E12       29.97F
BISMARCK       MOSUNNY   69  52  54 E6        29.96S
DICKINSON      MOSUNNY   71  47  42 SE13      29.93S
GARRISON         N/A     73  44  35 E9        29.96S
HETTINGER ARPT CLOUDY    67  52  58 SE9       29.94F
JAMESTOWN      SUNNY     69  49  48 E9        29.98R
BEACH            N/A     72  46  40 E13       29.93F
CARRINGTON     FAIR      66  54  63 E14       30.01R
CROSBY         FAIR      72  48  43 E15G21    29.94F
HARVEY         FAIR      66  50  55 E13       29.99S
HAZEN          FAIR      72  46  40 SE9       29.96S
LINTON         FAIR      73  46  38 SE7       29.97R
MANDAN         FAIR      68  50  52 E5        29.97S
OAKES            N/A     72  46  40 NE10G16   29.97S
RUGBY          FAIR      63  48  59 E10       30.01S
STANLEY        FAIR      70  45  40 E13       29.96S
TIOGA          FAIR      73  39  29 SE9G20    29.98S
WATFORD CITY   FAIR      73  41  31 SE12      29.92S
$$

CITY           SKY/WX    TMP DP  RH WIND       PRES   REMARKS
GRAND FORKS    SUNNY     64  47  53 NE10      30.01S
GRAND FORKS AF SUNNY     63  49  60 E9        30.02S
DEVILS LAKE    SUNNY     61  45  55 E9        30.01S
FARGO          SUNNY     72  50  45 N10       29.97S
CANDO          FAIR      59  45  58 E9        30.03S
CAVALIER       FAIR      57  43  58 NE10      30.06S
GRAFTON        FAIR      59  46  63 N9        30.03S
GWINNER        CLEAR     73  46  38 NE8       29.98S
LANGDON        FAIR      55  41  58 E14       30.05S
ROLLA          FAIR      57  41  54 E12       30.05S
WALHALLA         N/A     57  43  58 NE12      30.06F
$$

CITY           SKY/WX    TMP DP  RH WIND       PRES   REMARKS
ABERDEEN       MOSUNNY   69  50  50 NE6       29.96R
MOBRIDGE       CLOUDY    71  49  45 E10       29.95R
BUFFALO          N/A     75  51  43 E16       29.88F
RAPID CITY     SUNNY     78  48  34 SE12      29.92S
GLASGOW        SUNNY     80  46  30 SE14      29.82F
SIDNEY         SUNNY    N/A N/A N/A SE9       29.91F
WOLF POINT     SUNNY     80  46  30 SE9       29.85F
GLENDIVE       SUNNY     77  50  38 E12       29.90F
MILES CITY     SUNNY     83  43  24 SE7       29.84F
BAKER          SUNNY     76  50  40 S18       29.92F
$$

CITY           SKY/WX    TMP DP  RH WIND       PRES   REMARKS
BILLINGS       PTSUNNY   84  43  23 CALM      29.86F
GREAT FALLS    CLOUDY    79  55  43 S5        29.81F
REGINA         MOSUNNY   66  50  55 SE14G22   29.91F
ESTEVAN        MOSUNNY   64  52  63 SE12      29.97F
$$




USA.gov is the U.S. government's official web portal to all federal, state and local government web resources and services.